GW7264 Weather Reports


time (UTC)temp
C
wind
direction
speed
KPH
gust
KPH
rain 1hr
cm
rain 24hr
cm
rain mn
cm
humidity
%
barometer
mb
20260506201219 9 285 4.8 12.9 0.10 1.12 1.02 95 1005.9
20260506200205 9 322 3.2 12.9 0.00 1.09 1.02 95 1005.9
20260506195140 9 306 3.2 12.9 0.00 1.09 1.02 95 1005.7
20260506194151 9 291 3.2 9.7 0.00 1.09 0.97 95 1005.8
20260506193200 9 324 3.2 9.7 0.00 1.07 0.97 96 1005.8
20260506192203 9 295 3.2 9.7 0.00 1.12 0.97 96 1005.7
20260506190040 8 329 3.2 8.0 0.00 1.19 0.97 95 1005.5
20260506185054 8 20 3.2 12.9 0.00 1.19 0.97 95 1005.5
20260506181815 8 306 0.0 3.2 0.00 1.19 0.97 95 1005.2
20260506180744 8 303 0.0 3.2 0.00 1.14 0.94 95 1005.2
20260506175717 8 39 0.0 4.8 0.00 1.14 0.94 95 1005.2
20260506174716 8 318 1.6 4.8 0.00 1.12 0.91 95 1005.1
20260506173659 8 305 3.2 6.4 0.00 1.12 0.91 95 1005.0
20260506172644 8 331 3.2 8.0 0.00 1.12 0.89 95 1005.0
20260506171647 8 288 3.2 8.0 0.00 1.12 0.89 95 1005.0
20260506170639 7 272 3.2 6.4 0.00 1.12 0.89 95 1005.1
20260506165642 7 269 1.6 6.4 0.00 1.07 0.86 95 1005.0
20260506164653 7 211 1.6 6.4 0.00 1.07 0.86 95 1005.0
20260506163650 7 324 3.2 6.4 0.00 1.07 0.86 95 1005.1
20260506162704 7 293 3.2 6.4 0.00 1.07 0.86 95 1005.4
20260506161713 7 314 1.6 6.4 0.00 1.07 0.86 94 1005.5
20260506160643 7 340 0.0 3.2 0.00 1.07 0.86 94 1005.5
20260506155632 7 46 0.0 4.8 0.00 1.07 0.86 94 1005.4
20260506154658 7 344 1.6 8.0 0.00 1.04 0.84 94 1005.7
20260506153643 7 20 1.6 9.7 0.00 1.04 0.84 94 1005.3
20260506152658 7 1 3.2 9.7 0.00 1.04 0.81 94 1005.1
20260506151643 7 46 1.6 9.7 0.15 1.04 0.81 94 1005.1
20260506150632 7 28 1.6 9.7 0.13 0.99 0.79 94 1005.2
20260506145604 7 28 3.2 9.7 0.13 0.97 0.76 94 1005.4
20260506144559 7 1 1.6 4.8 0.13 0.97 0.71 94 1005.2
20260506142355 7 23 0.0 3.2 0.13 0.89 0.69 95 1005.1
20260506141338 7 59 0.0 3.2 0.13 0.89 0.69 94 1005.2
20260506140314 7 349 1.6 4.8 0.13 0.86 0.66 94 1005.3
20260506135251 7 13 1.6 6.4 0.20 0.84 0.64 94 1005.4
20260506134253 7 324 3.2 6.4 0.23 0.84 0.61 94 1005.5
20260506133300 7 347 1.6 6.4 0.30 0.76 0.53 94 1005.3
20260506132321 7 323 1.6 6.4 0.20 0.71 0.51 94 1005.3
20260506125049 7 334 0.0 4.8 0.00 0.64 0.41 93 1005.0
20260506124053 7 1 1.6 6.4 0.00 0.58 0.38 93 1005.3
20260506123049 7 32 3.2 11.3 0.00 0.58 0.38 93 1005.2
20260506120911 7 340 1.6 9.7 0.00 0.53 0.33 93 1005.4
20260506115843 7 28 4.8 12.9 0.10 0.53 0.33 93 1005.1
20260506114851 7 42 4.8 12.9 0.13 0.51 0.30 93 1005.1
20260506113855 7 23 3.2 14.5 0.20 0.51 0.30 93 1005.2
20260506111745 7 72 3.2 11.3 0.00 0.46 0.25 92 1005.4
20260506110804 7 63 3.2 11.3 0.00 0.43 0.23 92 1005.4
20260506105757 7 344 3.2 9.7 0.00 0.43 0.23 92 1005.4
20260506103622 7 40 1.6 8.0 0.00 0.41 0.20 90 1005.7
20260506102641 7 223 1.6 9.7 0.00 0.41 0.20 91 1005.8
20260506100513 7 28 4.8 12.9 0.00 0.38 0.15 91 1005.8
20260506095527 7 320 3.2 12.9 0.00 0.38 0.15 92 1005.6
20260506094540 7 39 3.2 12.9 0.00 0.38 0.15 92 1005.4
20260506093523 7 21 3.2 11.3 0.00 0.36 0.15 92 1005.6
20260506092535 7 32 3.2 9.7 0.00 0.36 0.15 93 1005.7
20260506091529 7 32 1.6 6.4 0.00 0.33 0.13 94 1006.2
20260506090501 7 40 1.6 6.4 0.00 0.36 0.13 94 1006.1
20260506085442 7 336 1.6 11.3 0.00 0.38 0.13 93 1006.0
20260506084415 7 348 4.8 14.5 0.00 0.38 0.13 93 1006.0
20260506083344 7 30 3.2 14.5 0.00 0.36 0.10 93 1006.1
20260506082404 7 345 3.2 12.9 0.00 0.36 0.10 94 1006.0
20260506081334 8 18 3.2 9.7 0.00 0.36 0.10 94 1005.8
20260506080321 8 335 4.8 12.9 0.00 0.36 0.10 94 1005.9
20260506073216 8 344 0.0 3.2 0.00 0.36 0.10 96 1005.9
20260506072229 8 344 0.0 3.2 0.13 0.36 0.10 96 1005.9
20260506071202 9 117 0.0 8.0 0.25 0.33 0.10 96 1006.3
20260506070216 9 202 1.6 8.0 0.00 0.25 0.03 96 1006.8
20260506062144 9 1 0.0 3.2 0.00 0.25 0.00 95 1006.6
20260506043744 9 293 1.6 4.8 0.00 0.25 0.00 94 1007.5
20260506042736 9 279 1.6 6.4 0.00 0.25 0.00 94 1007.4
20260506041734 9 245 1.6 6.4 0.00 0.25 0.00 94 1008.0
20260506040759 10 223 1.6 6.4 0.00 0.25 0.00 94 1007.9
20260506035821 10 311 3.2 6.4 0.00 0.25 0.25 94 1008.0
20260506034807 10 194 1.6 8.0 0.00 0.25 0.25 94 1008.1
20260506033749 10 297 3.2 8.0 0.00 0.23 0.25 93 1007.8
20260506032744 10 178 3.2 8.0 0.00 0.23 0.25 93 1008.0
20260506031759 10 236 3.2 8.0 0.00 0.23 0.25 93 1007.8
20260506030746 10 250 3.2 6.4 0.00 0.23 0.25 93 1007.9
20260506025752 10 303 3.2 11.3 0.00 0.23 0.23 92 1008.1
20260506024729 11 223 4.8 11.3 0.00 0.23 0.23 92 1008.0
20260506023655 11 276 1.6 6.4 0.00 0.23 0.23 91 1007.1
20260506021542 11 304 1.6 8.0 0.00 0.23 0.23 88 1006.9
20260506020538 11 316 3.2 11.3 0.00 0.20 0.20 87 1007.2
20260506015557 12 325 4.8 11.3 0.00 0.20 0.20 85 1007.2
20260506014547 12 308 4.8 11.3 0.00 0.20 0.20 83 1007.2
20260506013522 12 296 4.8 11.3 0.00 0.20 0.20 81 1007.0
20260506012502 13 300 4.8 11.3 0.00 0.20 0.20 80 1006.6
20260506011500 13 327 3.2 12.9 0.00 0.20 0.20 80 1006.9
20260506005341 14 254 4.8 12.9 0.00 0.20 0.20 76 1006.5
20260506004321 14 264 4.8 12.9 0.00 0.15 0.15 74 1006.3
20260506002225 14 318 6.4 12.9 0.00 0.15 0.15 74 1005.9
20260506001239 14 283 6.4 14.5 0.00 0.15 0.15 74 1005.4
20260506000240 15 283 8.0 20.9 0.00 0.15 0.15 73 1005.4
20260505235232 15 308 8.0 20.9 0.00 0.15 0.15 73 1005.2
20260505233027 15 279 8.0 17.7 0.00 0.15 0.15 76 1004.6
20260505232043 15 336 4.8 12.9 0.00 0.15 0.15 82 1004.7
20260505231031 15 264 3.2 12.9 0.00 0.15 0.15 84 1004.3
20260505230006 16 314 4.8 14.5 0.00 0.15 0.15 84 1004.1
20260505225029 16 274 4.8 20.9 0.00 0.15 0.15 85 1003.5
20260505224043 16 14 6.4 20.9 0.00 0.15 0.15 86 1003.6
20260505223021 17 300 8.0 19.3 0.00 0.15 0.15 86 1003.2
20260505221948 17 318 8.0 17.7 0.00 0.15 0.15 88 1003.3
20260505221009 18 262 4.8 16.1 0.00 0.15 0.15 88 1003.3
20260505220004 18 293 0.0 6.4 0.00 0.15 0.15 87 1002.9
20260505215015 18 46 1.6 8.0 0.00 0.15 0.15 87 1002.4
20260505214002 18 130 3.2 8.0 0.00 0.15 0.15 85 1002.4
20260505212938 18 129 3.2 6.4 0.00 0.15 0.15 85 1002.6
20260505204515 18 303 3.2 8.0 0.00 0.15 0.15 80 1002.4
20260505203443 18 276 3.2 11.3 0.00 0.15 0.15 82 1002.6
20260505202410 18 250 4.8 14.5 0.00 0.15 0.15 81 1002.5